Lone Rock, WI

9:02 AM CST on February 06, 2016 (GMT -0600)
Tri-County Regional

Weather History for KLNR - September, 2013

Change the Weather History Date:

Wednesday, September 4, 2013

  Actual Average Record
Temperature  
Mean Temperature 66 °F -  
Max Temperature 84 °F 77 °F 91 °F (2012)
Min Temperature 48 °F 53 °F 41 °F (1997)
Cooling Degree Days 1    
Growing Degree Days 16 (Base 50)    
Moisture  
Dew Point 55 °F    
Average Humidity 86    
Maximum Humidity 100    
Minimum Humidity 53    
Precipitation  
Precipitation 0.01 in - - ()
Sea Level Pressure  
Sea Level Pressure 30.08 in    
Wind  
Wind Speed 1 mph (West)    
Max Wind Speed 9 mph    
Max Gust Speed -    
Visibility 5 miles    
Events Fog    
Averages and records for this station are not official NWS values.
T = Trace of Precipitation, MM = Missing Value Source: NWS Daily Summary

Daily Weather History Graph

Daily Weather History Graph

Search for Another Location

Airport or City:

Trip Planner

Search our weather history database for the weather conditions in past years. The results will help you decide how hot, cold, wet, or windy it might be!

Date:

Astronomy

Sep. 04, 2013 Rise Set
Actual Time 6:28 AM CDT 7:29 PM CDT
Civil Twilight 5:59 AM CDT 7:59 PM CDT
Nautical Twilight 5:24 AM CDT 8:33 PM CDT
Astronomical Twilight 4:48 AM CDT 9:09 PM CDT
Moon 5:40 AM CDT (9/4) 6:48 PM CDT (9/4)
Length of Visible Light 13h 59m
Length of Day
13h 01m
Waning Crescent, 1% of the Moon is Illuminated
Sep 4
Waning Crescent
Sep 5
New
Sep 12
First Quarter
Sep 19
Full
Sep 26
Last Quarter

Hourly Weather History & Observations

Time (CDT) Temp. Heat Index Dew Point Humidity Pressure Visibility Wind Dir Wind Speed Gust Speed Precip Events Conditions
12:15 AM 51.8 °F - 48.2 °F 88% 30.05 in 2.0 mi Calm Calm - N/A   Partly Cloudy
12:17 AM 51.8 °F - 48.2 °F 88% 30.05 in 1.0 mi Calm Calm - N/A   Mist
12:26 AM 51.8 °F - 50.0 °F 94% 30.06 in 2.5 mi Calm Calm - N/A   Partly Cloudy
12:33 AM 51.8 °F - 50.0 °F 94% 30.06 in 6.0 mi Calm Calm - N/A   Partly Cloudy
12:56 AM 50.0 °F - 48.9 °F 96% 30.04 in 10.0 mi Calm Calm - N/A   Clear
1:37 AM 50.0 °F - 48.2 °F 94% 30.05 in 5.0 mi Calm Calm - N/A   Partly Cloudy
1:56 AM 50.0 °F - 48.0 °F 93% 30.04 in 10.0 mi Calm Calm - N/A   Scattered Clouds
2:03 AM 50.0 °F - 48.2 °F 94% 30.06 in 2.0 mi Calm Calm - N/A   Mostly Cloudy
2:06 AM 48.2 °F - 48.2 °F 100% 30.06 in 0.8 mi Calm Calm - N/A   Mist
2:12 AM 50.0 °F - 48.2 °F 94% 30.06 in 0.2 mi Calm Calm - N/A Fog Fog
2:20 AM 50.0 °F - 48.2 °F 94% 30.07 in 0.5 mi Calm Calm - 0.01 in Fog Fog
2:27 AM 50.0 °F - 48.2 °F 94% 30.07 in 2.0 mi Calm Calm - 0.01 in   Overcast
2:31 AM 48.2 °F - 48.2 °F 100% 30.07 in 0.8 mi Calm Calm - 0.01 in   Mist
2:56 AM 50.0 °F - 50.0 °F 100% 30.06 in 0.2 mi Calm Calm - 0.01 in Fog Fog
3:22 AM 50.0 °F - 48.2 °F 94% 30.08 in 0.5 mi Calm Calm - N/A Fog Fog
3:48 AM 50.0 °F - 50.0 °F 100% 30.08 in 0.2 mi Calm Calm - N/A Fog Fog
3:56 AM 50.0 °F - 50.0 °F 100% 30.07 in 0.2 mi Calm Calm - N/A Fog Fog
4:14 AM 50.0 °F - 50.0 °F 100% 30.09 in 0.2 mi Calm Calm - N/A Fog Fog
4:45 AM 50.0 °F - 50.0 °F 100% 30.09 in 0.2 mi Calm Calm - N/A Fog Fog
4:56 AM 50.0 °F - 48.9 °F 96% 30.08 in 0.2 mi Calm Calm - N/A Fog Fog
5:06 AM 50.0 °F - 48.2 °F 94% 30.09 in 0.5 mi Calm Calm - N/A Fog Fog
5:38 AM 50.0 °F - 48.2 °F 94% 30.10 in 0.2 mi Calm Calm - N/A Fog Fog
5:56 AM 50.0 °F - 48.9 °F 96% 30.09 in 0.2 mi Calm Calm - N/A Fog Fog
6:56 AM 51.1 °F - 50.0 °F 96% 30.11 in 0.2 mi Calm Calm - N/A Fog Fog
7:56 AM 53.1 °F - 52.0 °F 96% 30.12 in 1.0 mi Calm Calm - N/A   Mist
7:59 AM 53.6 °F - 51.8 °F 94% 30.13 in 3.0 mi Calm Calm - N/A   Mostly Cloudy
8:18 AM 53.6 °F - 53.6 °F 100% 30.14 in 10.0 mi Calm Calm - N/A   Scattered Clouds
8:56 AM 59.0 °F - 55.9 °F 90% 30.12 in 10.0 mi Calm Calm - N/A   Clear
9:56 AM 66.9 °F - 57.9 °F 73% 30.11 in 10.0 mi West 5.8 mph - N/A   Clear
10:56 AM 73.0 °F - 57.0 °F 57% 30.11 in 10.0 mi West 8.1 mph - N/A   Clear
11:56 AM 77.0 °F - 60.1 °F 56% 30.11 in 10.0 mi West 6.9 mph - N/A   Clear
12:56 PM 80.1 °F 81.2 °F 62.1 °F 54% 30.09 in 10.0 mi WSW 6.9 mph - N/A   Clear
1:56 PM 82.9 °F 84.6 °F 64.9 °F 54% 30.09 in 10.0 mi West 9.2 mph - N/A   Clear
2:56 PM 84.0 °F 85.8 °F 64.9 °F 53% 30.07 in 10.0 mi Variable 6.9 mph - N/A   Clear
3:56 PM 84.9 °F 87.1 °F 66.0 °F 53% 30.06 in 10.0 mi West 6.9 mph - N/A   Clear
4:56 PM 82.9 °F 85.0 °F 66.0 °F 56% 30.05 in 10.0 mi West 8.1 mph - N/A   Clear
5:56 PM 84.0 °F 86.3 °F 66.0 °F 55% 30.05 in 10.0 mi West 6.9 mph - N/A   Clear
6:56 PM 80.1 °F 82.3 °F 66.9 °F 64% 30.05 in 10.0 mi Calm Calm - N/A   Clear
7:56 PM 75.0 °F - 68.0 °F 79% 30.06 in 10.0 mi Calm Calm - N/A   Clear
8:56 PM 69.1 °F - 66.0 °F 90% 30.07 in 10.0 mi Calm Calm - N/A   Clear
9:56 PM 68.0 °F - 66.0 °F 93% 30.08 in 10.0 mi Calm Calm - N/A   Clear
10:56 PM 66.9 °F - 64.0 °F 90% 30.09 in 10.0 mi Calm Calm - N/A   Clear
11:56 PM 66.0 °F - 64.9 °F 96% 30.09 in 10.0 mi Calm Calm - N/A   Overcast